Weather History for Westfield, MA

Change the Weather History Date:

Monday, January 21, 2013

  Actual Average Record
Temperature  
Mean Temperature 22 °F -  
Max Temperature 28 °F 27 °F 59 °F (2006)
Min Temperature 17 °F 11 °F -2 °F (2003)
Degree Days  
Heating Degree Days 42    
Moisture  
Dew Point 13 °F    
Average Humidity 70    
Maximum Humidity 93    
Minimum Humidity 43    
Precipitation  
Precipitation 0.01 in - - ()
Sea Level Pressure  
Sea Level Pressure 29.94 in    
Wind  
Wind Speed 4 mph (SSW)    
Max Wind Speed 9 mph    
Max Gust Speed -    
Visibility 7 miles    
Events Snow    
Averages and records for this station are not official NWS values.
T = Trace of Precipitation, MM = Missing Value Source: NWS Daily Summary

Daily Weather History Graph

Daily Weather History Graph

Search for Another Location

Airport:

Trip Planner

Search our weather history database for the weather conditions in past years. The results will help you decide how hot, cold, wet, or windy it might be!

Date:

Astronomy

Jan. 21, 2013 Rise Set
Actual Time 7:13 AM EST 4:51 PM EST
Civil Twilight 6:42 AM EST 5:22 PM EST
Nautical Twilight 6:08 AM EST 5:56 PM EST
Astronomical Twilight 5:35 AM EST 6:29 PM EST
Moon 12:29 PM EST (1/21) 2:39 AM EST (1/21)
Length of Visible Light 10h 39m
Length of Day
9h 38m
Waxing Gibbous, 75% of the Moon is Illuminated
Jan 21
Waxing Gibbous
Jan 26
Full
Feb 3
Last Quarter
Feb 10
New
Feb 17
First Quarter

Hourly Weather History & Observations

Time (EST) Temp. Windchill Dew Point Humidity Pressure Visibility Wind Dir Wind Speed Gust Speed Precip Events Conditions
12:53 AM 25.0 °F 17.1 °F 15.1 °F 66% 30.00 in 10.0 mi NNW 6.9 mph - N/A   Mostly Cloudy
1:53 AM 24.1 °F 17.0 °F 10.9 °F 57% 30.03 in 10.0 mi NW 5.8 mph - 0.00 in   Partly Cloudy
2:53 AM 21.9 °F 12.5 °F 8.1 °F 55% 30.05 in 10.0 mi NNW 8.1 mph - N/A   Clear
3:53 AM 21.0 °F 13.4 °F 7.0 °F 55% 30.06 in 10.0 mi NW 5.8 mph - N/A   Clear
4:53 AM 19.0 °F - 7.0 °F 59% 30.07 in 10.0 mi Calm Calm - N/A   Clear
5:53 AM 17.1 °F - 8.1 °F 68% 30.09 in 10.0 mi Calm Calm - N/A   Clear
6:53 AM 19.0 °F 12.3 °F 7.0 °F 59% 30.08 in 10.0 mi NNW 4.6 mph - N/A   Partly Cloudy
7:53 AM 19.9 °F - 8.1 °F 60% 30.08 in 10.0 mi Calm Calm - N/A   Overcast
8:53 AM 21.0 °F 13.4 °F 9.0 °F 60% 30.11 in 10.0 mi SSW 5.8 mph - N/A   Overcast
9:53 AM 23.0 °F 15.8 °F 8.1 °F 53% 30.10 in 10.0 mi SSE 5.8 mph - N/A   Overcast
10:53 AM 25.0 °F 16.3 °F 8.1 °F 49% 30.08 in 10.0 mi South 8.1 mph - N/A   Scattered Clouds
11:53 AM 26.1 °F 16.8 °F 9.0 °F 49% 30.03 in 10.0 mi South 9.2 mph - N/A   Scattered Clouds
12:53 PM 26.1 °F 17.6 °F 8.1 °F 47% 29.99 in 10.0 mi South 8.1 mph - N/A   Overcast
1:53 PM 27.0 °F 18.7 °F 7.0 °F 43% 29.98 in 10.0 mi South 8.1 mph - N/A   Overcast
2:53 PM 28.0 °F 20.0 °F 8.1 °F 43% 29.96 in 10.0 mi South 8.1 mph - N/A   Overcast
3:53 PM 26.1 °F 19.4 °F 12.9 °F 58% 29.94 in 10.0 mi SSE 5.8 mph - N/A   Overcast
4:53 PM 25.0 °F 19.3 °F 15.1 °F 66% 29.93 in 6.0 mi South 4.6 mph - 0.00 in Snow Light Snow
5:29 PM 24.8 °F 19.1 °F 17.6 °F 74% 29.90 in 2.0 mi SSE 4.6 mph - 0.00 in Snow Light Snow
5:53 PM 24.1 °F 19.7 °F 19.0 °F 81% 29.93 in 2.0 mi SSE 3.5 mph - 0.00 in Snow Light Snow
6:31 PM 24.8 °F - 19.4 °F 80% 29.89 in 1.5 mi Calm Calm - 0.00 in Snow Light Snow
6:53 PM 24.1 °F - 19.9 °F 84% 29.92 in 1.5 mi Calm Calm - 0.01 in Snow Light Snow
7:00 PM 24.8 °F - 19.4 °F 80% 29.89 in 2.0 mi Calm Calm - 0.00 in Snow Light Snow
7:53 PM 24.1 °F - 19.0 °F 81% 29.92 in 6.0 mi Calm Calm - 0.00 in   Haze
8:42 PM 23.0 °F - 19.4 °F 86% 29.86 in 5.0 mi Calm Calm - 0.00 in Snow Light Snow
8:53 PM 23.0 °F - 19.0 °F 85% 29.89 in 8.0 mi Calm Calm - 0.00 in   Scattered Clouds
9:53 PM 19.0 °F - 16.0 °F 88% 29.86 in 3.0 mi Calm Calm - N/A   Clear
9:56 PM 19.4 °F - 15.8 °F 86% 29.83 in 1.5 mi Calm Calm - N/A   Clear
9:59 PM 19.4 °F - 15.8 °F 86% 29.83 in 0.8 mi Calm Calm - N/A   Mist
10:06 PM 19.4 °F 14.3 °F 15.8 °F 86% 29.82 in 1.0 mi NNW 3.5 mph - N/A   Scattered Clouds
10:10 PM 17.6 °F 12.3 °F 15.8 °F 93% 29.82 in 3.0 mi North 3.5 mph - N/A   Scattered Clouds
10:15 PM 19.4 °F - 15.8 °F 86% 29.82 in 4.0 mi Calm Calm - N/A   Mostly Cloudy
10:33 PM 19.4 °F - 15.8 °F 86% 29.81 in 8.0 mi Calm Calm - N/A   Overcast
10:45 PM 19.4 °F - 15.8 °F 86% 29.81 in 9.0 mi Calm Calm - N/A   Overcast
10:53 PM 19.0 °F - 15.1 °F 85% 29.84 in 10.0 mi Calm Calm - N/A   Overcast
11:53 PM 21.9 °F - 18.0 °F 85% 29.80 in 10.0 mi Calm Calm - N/A   Overcast